CAPE
0 0 0 0 0 0 0 0 0 0 0 0 0 0 0 0 0 0 59 1480 1645 1492 1424 1671 1812 1693 1485 1534 1451 1322 1291 1354
0 0 0 0 0 0 0 0 0 0 0 0 0 0 0 0 0 0 0 38 1206 1612 1645 1493 1409 1501 1523 1347 1450 1518 1321 1304
0 0 0 0 0 0 0 0 0 0 0 0 0 0 0 0 0 0 0 0 0 742 1556 1615 1682 1393 1352 1218 1090 1158 1206 1274
0 0 0 0 0 0 0 0 0 0 0 0 0 0 0 0 0 0 0 0 0 0 555 1424 1709 1527 1250 1058 999 695 593 929
0 0 0 0 0 0 0 0 0 0 0 0 0 0 0 0 0 0 0 0 0 0 4 786 1149 1448 1118 823 437 17 0 9
0 0 0 0 0 0 0 0 0 0 0 0 0 0 1 1 1 1 0 0 0 0 0 31 708 957 902 627 162 0 25 273
0 0 0 0 0 0 0 0 0 0 0 0 0 1 1 3 2 4 3 1 0 0 0 0 521 596 674 646 449 210 326 293
0 0 0 0 0 0 0 0 0 0 0 0 1 1 3 4 5 4 4 3 4 2 0 0 56 646 488 500 641 624 546 549
0 0 0 0 0 0 0 0 0 0 0 1 0 0 2 3 3 3 3 3 3 1 2 0 4 103 324 494 601 435 433 590
0 0 0 0 0 0 0 0 0 0 1 1 0 1 2 4 3 2 3 4 3 3 2 1 0 0 5 330 380 354 352 260
0 0 0 0 0 0 0 0 1 1 1 1 2 2 2 2 3 3 4 3 3 5 2 0 19 2 0 331 508 574 552 223
0 0 0 0 0 0 0 0 1 1 1 1 3 3 2 2 3 3 4 4 4 10 1 162 370 457 319 368 582 604 589 357
0 0 0 0 0 0 0 0 1 1 1 1 2 1 2 3 3 3 3 5 5 6 7 4 450 353 196 374 482 553 487 445
0 0 0 0 0 0 1 0 1 1 1 2 2 2 2 4 4 3 4 5 6 6 9 3 0 217 262 590 605 686 642 588
0 0 0 0 0 1 1 0 0 1 1 2 2 2 2 2 2 3 4 5 6 7 8 9 9 3 0 1 357 409 261 216
0 0 0 1 0 1 0 0 0 0 1 1 1 0 2 1 2 2 2 4 4 4 5 4 7 4 13 11 0 78 80 63
0 1 2 1 1 1 0 0 0 0 1 1 0 0 1 1 0 2 2 3 3 2 5 6 8 8 3 7 0 4 1 0
1 3 1 2 1 1 1 0 0 0 1 1 0 0 1 0 0 0 1 1 1 4 3 4 7 6 4 0 9 12 5 2
1 0 0 0 0 0 0 0 0 0 1 1 1 2 2 1 1 1 1 0 0 0 1 2 4 5 3 0 0 3 7 8
CIN
-0 -0 -0 -0 -0 -0 -0 -0 -0 -0 -0 -0 -0 -0 -0 -0 -0 -0 -59 -9 -20 -28 -37 -24 -29 -32 -27 -37 -50 -70 -66 -65
-0 -0 -0 -0 -0 -0 -0 -0 -0 -0 -0 -0 -0 -0 -0 -0 -0 -0 -0 -102 -6 -31 -20 -33 -50 -30 -37 -25 -26 -38 -33 -30
-117 -0 -0 -0 -0 -0 -0 -0 -0 -0 -0 -0 -0 -0 -0 -0 -0 -0 -0 -0 -0 -51 -20 -12 -18 -32 -30 -39 -16 -25 -19 -24
-0 -0 -0 -0 -0 -0 -0 -0 -0 -0 -0 -0 -0 -0 -0 -0 -0 -0 -0 -0 -0 -0 -42 -7 -6 -13 -21 -41 -14 -13 -12 -15
-0 -0 -0 -0 -0 -0 -0 -0 -0 -0 -0 -0 -0 -0 -0 -0 -0 -0 -0 -0 -0 -0 -10 -6 -6 -12 -28 -51 -90 -89 -0 -51
-0 -0 -0 -0 -0 -0 -0 -0 -0 -0 -0 -0 -0 -0 -0 -0 -0 -0 -0 -0 -0 -0 -0 -85 -3 -13 -36 -86 -151 -24 -168 -66
-0 -0 -0 -0 -0 -0 -0 -0 -0 -0 -0 -0 -0 -0 -0 -0 -0 -0 -0 -0 -0 -0 -0 -0 -21 -3 -16 -60 -87 -121 -81 -104
-0 -0 -0 -0 -0 -0 -0 -0 -0 -0 -0 -0 -0 -0 -0 -0 -0 -0 -0 -0 -0 -0 -0 -0 -138 -17 -5 -14 -31 -32 -38 -18
-0 -0 -0 -0 -0 -0 -0 -0 -0 -0 -0 -0 -0 -0 -0 -0 -0 -0 -0 -0 -0 -0 -0 -0 -240 -78 -35 -13 -5 -31 -65 -30
-0 -0 -0 -0 -0 -0 -0 -0 -0 -0 -0 -0 -0 -0 -0 -0 -0 -0 -0 -0 -0 -0 -0 -0 -0 -0 -92 -21 -5 -57 -133 -120
-0 -0 -0 -0 -0 -0 -0 -0 -0 -0 -0 -0 -0 -0 -0 -0 -0 -0 -0 -0 -0 -0 -0 -0 -43 -68 -0 -38 -7 -43 -63 -172
-0 -0 -0 -0 -0 -0 -0 -0 -0 -0 -0 -0 -0 -0 -0 -0 -0 -0 -0 -0 -0 -0 -0 -70 -16 -33 -24 -28 -42 -43 -50 -52
-0 -0 -0 -0 -0 -0 -0 -0 -0 -0 -0 -0 -0 -0 -0 -0 -0 -0 -0 -0 -0 -0 -0 -3 -44 -22 -7 -16 -78 -54 -45 -8
-0 -0 -0 -0 -0 -0 -0 -0 -0 -0 -0 -0 -0 -0 -0 -0 -0 -0 -0 -0 -0 -0 -0 -0 -0 -29 -9 -8 -10 -0 -0 -11
-0 -0 -0 -0 -0 -0 -0 -0 -0 -0 -0 -0 -0 -0 -0 -0 -0 -0 -0 -0 -0 -0 -0 -0 -0 -0 -0 -0 -2 -5 -30 -45
-0 -0 -0 -0 -0 -0 -0 -0 -0 -0 -0 -0 -0 -0 -0 -0 -0 -0 -0 -0 -0 -0 -0 -0 -0 -0 -0 -0 -0 -21 -54 -63
-0 -0 -0 -0 -0 -0 -0 -0 -0 -0 -0 -0 -0 -0 -0 -0 -0 -0 -0 -0 -0 -0 -0 -0 -0 -0 -0 -0 -0 -81 -1 -0
-0 -0 -0 -0 -0 -0 -0 -0 -0 -0 -0 -0 -0 -0 -0 -0 -0 -0 -0 -0 -0 -0 -0 -0 -0 -0 -0 -0 -0 -0 -0 -0
-0 -0 -0 -0 -0 -0 -0 -0 -0 -0 -0 -0 -0 -0 -0 -0 -0 -0 -0 -0 -0 -0 -0 -0 -0 -0 -0 -0 -0 -0 -0 -0
Wind_Speed
10 9 11 13 16 21 24 25 27 29 29 30 30 31 32 32 33 34 33 28 26 26 27 27 28 28 26 26 25 25 25 21
8 10 12 15 19 21 24 25 27 28 29 30 32 34 36 37 37 39 39 35 29 26 27 28 28 32 31 29 31 29 28 22
7 10 13 15 18 20 23 25 27 28 29 30 30 32 31 36 39 41 42 42 39 32 30 32 32 31 33 34 34 33 32 23
5 10 12 15 19 22 24 27 28 29 31 32 33 33 33 33 36 41 44 44 44 42 35 33 33 34 36 35 33 32 35 28
3 6 12 16 20 22 25 27 29 30 31 32 33 35 38 38 40 42 45 47 47 47 47 38 36 36 37 36 33 40 30 35
3 6 12 17 21 23 26 28 29 31 31 32 34 37 38 39 41 44 46 46 46 46 47 46 36 36 37 38 37 36 31 29
6 9 14 18 21 24 27 30 32 33 34 35 36 38 41 41 42 45 44 44 45 44 42 44 37 36 35 35 36 35 34 33
10 13 15 20 22 26 29 32 34 36 36 37 38 38 40 41 42 43 45 43 42 40 38 38 37 34 35 35 35 33 32 33
9 13 18 20 24 28 31 34 36 37 37 38 38 39 40 40 41 43 44 42 40 38 34 35 35 30 31 35 36 31 30 31
12 15 20 23 26 30 33 36 37 38 38 38 39 39 40 41 42 42 41 39 36 40 31 29 32 28 25 19 23 25 25 25
14 17 23 26 29 32 34 36 37 38 38 38 38 39 40 41 41 41 41 39 39 40 29 25 26 24 22 21 20 20 21 23
20 23 26 29 31 33 35 37 38 39 38 38 38 39 39 40 40 40 40 40 40 38 37 23 21 22 26 21 20 19 19 20
23 27 29 31 33 35 36 37 38 38 38 37 37 38 39 39 40 40 39 39 38 37 35 36 32 32 37 20 19 19 19 18
27 30 32 33 35 36 36 36 37 36 36 36 36 37 39 39 40 40 38 39 38 36 34 34 33 33 41 23 20 22 19 18
32 33 33 34 34 35 35 35 35 35 35 35 36 37 38 38 39 39 38 37 37 36 34 33 32 29 28 33 29 18 19 20
33 34 34 33 33 34 33 33 33 33 33 34 34 36 36 37 38 38 38 35 34 33 30 29 28 28 25 31 30 22 17 19
31 31 32 32 32 32 31 31 31 31 31 32 33 35 36 36 37 37 37 35 32 29 29 28 27 27 28 27 27 13 15 16
29 30 30 30 29 29 28 28 28 29 29 31 32 33 35 36 36 36 35 34 32 29 28 27 28 27 25 22 25 15 14 15
27 27 26 26 26 25 26 26 26 27 28 30 31 33 33 35 36 35 33 32 32 30 30 28 28 26 28 21 20 13 13 12
Wind_Direction
256 277 297 306 315 318 316 315 313 309 304 300 297 294 292 291 289 286 287 281 274 271 269 264 265 265 266 261 256 259 262 263
259 281 296 303 311 315 315 313 314 312 307 303 299 294 292 288 287 285 283 288 281 270 265 266 265 260 261 261 261 260 264 261
266 289 300 307 313 319 317 315 313 310 310 308 307 303 300 294 289 284 282 281 283 282 268 268 267 264 263 262 259 265 265 251
259 302 309 312 321 321 318 315 313 310 311 310 308 306 304 302 297 288 282 282 282 284 280 269 268 266 265 266 266 265 248 256
277 304 313 319 326 326 321 318 315 313 314 313 311 306 301 301 298 294 289 284 284 283 283 275 266 268 267 264 261 271 264 264
269 330 316 321 327 323 324 323 320 318 318 315 311 308 307 303 301 298 293 291 287 285 282 284 268 267 267 265 263 263 256 252
307 332 321 328 324 322 323 323 321 319 317 314 313 311 307 305 302 300 299 297 292 288 286 286 276 266 267 265 261 255 252 251
298 318 324 328 326 320 322 321 319 316 314 314 312 312 310 306 305 304 300 302 299 297 292 283 284 270 271 268 261 255 248 249
316 331 331 330 324 323 323 322 321 319 317 314 312 311 312 309 305 304 304 306 306 302 295 282 283 278 270 267 261 254 254 255
321 331 334 330 327 325 325 322 321 321 320 317 314 313 311 309 306 308 312 314 312 307 295 285 281 280 270 242 241 249 251 247
332 332 337 340 336 331 328 325 322 322 323 321 316 313 311 311 312 312 316 318 314 304 303 291 280 266 259 249 228 250 247 252
328 334 340 336 337 333 329 327 324 324 324 321 318 314 313 314 316 320 321 319 312 309 302 296 279 264 265 248 249 251 248 243
332 331 333 333 333 333 332 329 326 325 325 322 320 317 316 321 319 323 326 320 316 312 306 296 282 272 263 257 260 251 244 235
332 330 332 332 330 331 333 331 329 327 325 323 323 321 321 325 327 327 329 323 318 313 308 304 293 275 262 263 255 259 253 244
327 328 330 333 333 333 332 331 331 329 328 327 325 324 327 329 334 333 333 327 324 315 311 305 303 287 282 270 264 261 258 256
322 325 328 331 332 332 331 332 333 332 330 331 331 330 332 336 340 342 342 331 328 327 315 314 308 303 295 275 269 265 255 257
328 331 332 332 330 330 331 331 333 334 335 336 338 338 341 343 347 349 349 341 336 332 323 317 318 309 305 300 272 245 258 254
330 331 333 333 332 333 335 335 337 339 339 342 344 346 350 352 354 357 353 350 345 343 337 333 330 318 310 302 300 281 265 262
337 337 340 343 344 344 345 344 345 346 347 348 351 354 355 357 0 0 355 351 352 351 350 342 343 334 326 311 295 304 285 284